Flag for Poland Weather past 2 weeks in Lidzbark Warmiński, Poland

Now
58 °F

Fog.


Feels Like: 58 °F
Forecast: 33 / 47 °F
Wind: 5 mph from Northwest

Location: Ketrzyn

Current Time: Mar 27, 2015 at 2:47:38 PM

Latest Report: Mar 27, 2015 at 2:00 PM


Visibility: 4 mi

Pressure: 29.80 "Hg

Humidity: 81%

Dew point: 52 °F

Location of Lidzbark WarmińskiLocation

Historic Weather in Lidzbark Warmiński — Graph

°F

Lidzbark Warmiński temperature yesterday

Maximum temperature yesterday: 61 °F (at 1:00 PM)
Minimum temperature yesterday: 41 °F (at 5:00 AM)
Average temperature yesterday: 50 °F

Past Weeks' High & Low Weather Summary

 TemperatureHumidityPressure
High61 °F (Mar 26, 1:00 PM)96% (Mar 27, 1:00 AM)30.82 "Hg (Mar 27, 1:00 AM)
Low22 °F (Mar 22, 6:00 AM)25% (Mar 19, 3:00 PM)29.75 "Hg (Mar 26, 5:00 PM)
Average42 °F62%30.28 "Hg
* Reported Mar 12 1:00 PM — Mar 27 1:00 PM, Lidzbark Warmiński, Weather by CustomWeather, © 2015

Note: Actual official high and low records may vary slightly from our data, if they occured in-between our weather recording intervals... More about our weather records

Advertising

Lidzbark Warmiński weather history for previous 24 hours

 ConditionsComfort  
Time TempWeatherWind HumidityBarometerVisibility
1:00 PM
Fri, Mar 27
61 °FFog.2 mph67%29.80 "Hg6 mi
12:00 PM59 °FFog.1 mph71%29.80 "Hg6 mi
11:00 AM58 °FFog.1 mph76%29.80 "Hg5 mi
10:00 AM56 °FFog.2 mph81%29.80 "Hg4 mi
9:00 AM51 °FFog.1 mph88%29.80 "Hg4 mi
8:00 AM49 °FFog.1 mph93%29.80 "Hg3 mi
7:00 AM47 °FFog.1 mph96%29.80 "Hg2 mi
6:00 AM46 °FFog.1 mph96%29.78 "Hg1 mi
5:00 AM46 °FFog.2 mph95%29.78 "Hg2 mi
3:00 AM48 °FRain showers. Overcast.2 mph94%29.75 "Hg3 mi
2:00 AM49 °FFog.2 mph96%29.76 "Hg2 mi
1:00 AM48 °FFog.3 mph96%29.76 "Hg2 mi
12:00 AM49 °FFog.3 mph95%29.77 "Hg2 mi
11:00 PM
Thu, Mar 26
49 °FFog.2 mph94%29.77 "Hg3 mi
10:00 PM48 °FCool.6 mph92%29.76 "Hg4 mi
9:00 PM48 °FDrizzle. Overcast.6 mph90%29.77 "Hg4 mi
8:00 PM49 °FLight rain. Overcast.6 mph88%29.77 "Hg4 mi
7:00 PM50 °FLight rain. Overcast.7 mph82%29.78 "Hg5 mi
6:00 PM53 °FRain showers. Overcast.8 mph64%29.77 "Hg7 mi
5:00 PM55 °FRefreshingly cool.8 mph56%29.75 "Hg10 mi
4:00 PM57 °FRefreshingly cool.10 mph52%29.76 "Hg10 mi
3:00 PM57 °FRefreshingly cool.8 mph51%29.76 "Hg9 mi
2:00 PM58 °FRefreshingly cool.10 mph45%29.78 "Hg9 mi
Weather by CustomWeather, © 2015

See weather overviewHow to use our weather pages